This demonstration page uses our WeatherBlox Daily Observations layout. Learn more.

Left ArrowRight Arrow

44.89941, -97.11507

Hourly Observations for April 18, 2016

Temp ( °F °C ) Dew Point ( °F °C ) Humidity (%) Winds ( mph kmh ) Pressure ( in mb ) Visibility ( mi km ) Precip ( " mm )
12:53 am 00:53 Partly Cloudy 51 10.6 48 8.9 89 89 NNE 7 11 30.24 1024 7 11 0.00 0.00
1:53 am 01:53 Cloudy with Light Rain 51 10.6 48 8.9 89 89 NE 9 15 30.24 1024 8 13 0.00 0.03
2:25 am 02:25 Cloudy 50 10 48 8.9 93 93 NE 6 9 30.24 1024 9 14 0.00 0.03
2:53 am 02:53 Cloudy 50 10 47 8.3 89 89 NE 7 11 30.22 1023 9 14 0.00 0.03
3:53 am 03:53 Cloudy 49 9.4 47 8.3 93 93 NNE 5 7 30.20 1023 9 14 0.00 0.00
4:53 am 04:53 Cloudy 50 10 48 8.9 93 93 Calm 30.21 1023 10 16 0.00 0.00
5:53 am 05:53 Cloudy with Light Rain 50 10 48 8.9 93 93 NNE 5 7 30.20 1023 7 11 0.04 1.02
6:53 am 06:53 Cloudy 50 10 47 8.3 89 89 NE 7 11 30.20 1023 10 16 0.00 0.03
7:53 am 07:53 Cloudy 50 10 47 8.3 89 89 NE 7 11 30.20 1023 10 16 0.00 0.00
8:53 am 08:53 Mostly Sunny 50 10 46 7.8 86 86 NNE 8 13 30.22 1023 10 16 0.00 0.00
9:53 am 09:53 Partly Cloudy 51 10.6 47 8.3 86 86 NE 10 17 30.22 1023 10 16 0.00 0.00
10:00 am 10:00 Partly Cloudy 51 10.6 48 8.9 89 89 NE 12 19 30.21 1023 10 16 0.00 0.00
10:25 am 10:25 Mostly Cloudy 52 11.1 48 8.9 86 86 NE 13 20 30.18 1022 10 16 0.00 0.00
10:35 am 10:35 Partly Cloudy 53 11.7 49 9.4 86 86 NE 10 17 30.21 1023 10 16 0.00 0.00
10:53 am 10:53 Partly Cloudy 54 12.2 49 9.4 83 83 ENE 8 13 30.21 1023 10 16 0.00 0.00
11:53 am 11:53 Sunny 55 12.8 48 8.9 77 77 E 10 17 30.19 1023 10 16 0.00 0.00
12:53 pm 12:53 Cloudy 58 14.4 48 8.9 70 70 E 12 19 30.17 1022 10 16 0.00 0.00
1:53 pm 13:53 Cloudy with Light Rain 58 14.4 48 8.9 70 70 E 13 20 30.16 1021 8 13 0.00 0.03
2:53 pm 14:53 Cloudy with Light Rain 54 12.2 50 10 87 87 ENE 14 22 30.15 1021 5 8 0.04 1.02
3:53 pm 15:53 Cloudy with Rain 54 12.2 52 11.1 93 93 E 13 20 30.14 1021 3 5 0.13 3.30
4:00 pm 16:00 Cloudy with Rain 54 12.2 52 11.1 93 93 ENE 16 26 30.12 1020 3 4 0.01 0.25
4:26 pm 16:26 Cloudy with Light Rain 55 12.8 52 11.1 90 90 ENE 15 24 30.09 1019 4 6 0.05 1.27
4:34 pm 16:34 Cloudy with Light Rain 55 12.8 52 11.1 90 90 ENE 16 26 30.09 1019 4 6 0.05 1.27
4:53 pm 16:53 Cloudy with Light Rain 56 13.3 53 11.7 90 90 ENE 17 28 30.11 1020 5 8 0.07 1.78
5:31 pm 17:31 Cloudy with Light Rain 57 13.9 54 12.2 90 90 E 16 26 30.06 1018 4 6 0.04 1.02
5:53 pm 17:53 Cloudy with Rain 57 13.9 55 12.8 93 93 E 13 20 30.11 1020 5 8 0.08 2.03
6:08 pm 18:08 Cloudy with Light Rain 58 14.4 55 12.8 90 90 E 14 22 30.06 1018 4 6 0.02 0.51
6:53 pm 18:53 Cloudy with Light Rain 59 15 56 13.3 90 90 E 14 22 30.11 1020 5 8 0.06 1.52
7:31 pm 19:31 Cloudy with Heavy Rain 57 13.9 54 12.2 90 90 E 16 26 30.06 1018 2 3 0.08 2.03
7:37 pm 19:37 Cloudy with Heavy Rain 57 13.9 54 12.2 90 90 E 16 26 30.06 1018 1 2 0.13 3.30
7:49 pm 19:49 Cloudy with Heavy Rain 55 13 54 12 94 94 E 13 20 30.09 1019 2 2 0.22 5.59
7:53 pm 19:53 Cloudy with Heavy Rain 56 13.3 53 11.7 90 90 ESE 12 19 30.12 1020 1 2 0.27 6.86
8:00 pm 20:00 Cloudy with Heavy Rain 55 12.8 52 11.1 90 90 ESE 12 19 30.09 1019 2 3 0.05 1.27
8:09 pm 20:09 Cloudy with Rain 55 12.8 52 11.1 90 90 E 13 20 30.09 1019 4 6 0.08 2.03
8:53 pm 20:53 Cloudy with Heavy Rain 51 10.6 49 9.4 92 92 SSW 16 26 30.16 1021 3 4 0.19 4.83
9:04 pm 21:04 Cloudy with Heavy Rain 49 9.4 47 8.3 93 93 VRB 6 9 30.15 1021 3 4 0.08 2.03
9:10 pm 21:10 Cloudy with Heavy Rain 49 9.4 47 8.3 93 93 WSW 5 7 30.15 1021 3 5 0.10 2.54
9:50 pm 21:50 Cloudy 48 9 45 7 87 87 SW 7 11 30.15 1021 10 16 0.15 3.81
9:53 pm 21:53 Cloudy 48 8.9 45 7.2 89 89 SW 7 11 30.18 1022 10 16 0.15 3.81
10:23 pm 22:23 Cloudy 47 8.3 45 7.2 93 93 WSW 7 11 30.21 1023 10 16 0.00 0.00
10:53 pm 22:53 Cloudy 47 8.3 45 7.2 93 93 W 5 7 30.19 1022 10 16 0.00 0.03
11:53 pm 23:53 Cloudy 46 7.8 44 6.7 93 93 W 7 11 30.19 1022 10 16 0.00 0.00

Powered by AerisWeather